Schneifelwetter: Wetterstation Hallschlag, 537 m . NN
Wetterdaten: Sonntag, 21.03.2010
Datum Zeit Temp. A. Feuchte A. Luftdruck Regen Wind Richtung Richtung Sonnenschein Helligkeit T Regen Taupunkt Windchill
21.03.2010 00:00 9,8 C 97 % 1009 hPa 0,0 l/m 48,1 km/h (6 Bft) SW67.5 220 0 min 0 lux 0,00 min 9,3 C -2,4 C
21.03.2010 00:15 9,8 C 97 % 1009 hPa 0,0 l/m 39,1 km/h (6 Bft) SW45 225 0 min 0 lux 0,00 min 9,3 C -1,3 C
21.03.2010 00:30 9,6 C 96 % 1008 hPa 0,0 l/m 35,3 km/h (5 Bft) S-SW45 205 0 min 0 lux 0,00 min 9,0 C -0,9 C
21.03.2010 00:45 9,4 C 95 % 1008 hPa 0,0 l/m 32,3 km/h (5 Bft) S-SW45 210 0 min 0 lux 0,00 min 8,6 C -0,7 C
21.03.2010 01:00 9,3 C 96 % 1008 hPa 5,4 l/m 38,6 km/h (5 Bft) SW67.5 215 0 min 0 lux 15,00 min 8,7 C -1,9 C
21.03.2010 01:15 9,3 C 96 % 1008 hPa 0,3 l/m 33,1 km/h (5 Bft) SW45 220 0 min 0 lux 15,00 min 8,7 C -1,0 C
21.03.2010 01:30 9,2 C 96 % 1008 hPa 0,6 l/m 24,8 km/h (4 Bft) SW45 230 0 min 0 lux 15,00 min 8,6 C 0,8 C
21.03.2010 01:45 9,2 C 97 % 1008 hPa 0,9 l/m 34,4 km/h (5 Bft) SW67.5 220 0 min 0 lux 15,00 min 8,7 C -1,4 C
21.03.2010 02:00 9,1 C 97 % 1008 hPa 0,3 l/m 28,0 km/h (4 Bft) W-SW45 240 0 min 0 lux 15,00 min 8,6 C -0,2 C
21.03.2010 02:16 9,1 C 97 % 1008 hPa 0,3 l/m 23,6 km/h (4 Bft) SW45 215 0 min 0 lux 16,00 min 8,6 C 1,0 C
21.03.2010 02:31 9,2 C 98 % 1008 hPa 0,6 l/m 32,9 km/h (5 Bft) SW45 225 0 min 0 lux 15,00 min 8,9 C -1,1 C
21.03.2010 02:46 9,3 C 98 % 1007 hPa 1,2 l/m 30,8 km/h (5 Bft) SW45 235 0 min 0 lux 15,00 min 9,0 C -0,5 C
21.03.2010 03:01 9,3 C 98 % 1007 hPa 0,6 l/m 30,4 km/h (5 Bft) W-SW22.5 245 0 min 0 lux 15,00 min 9,0 C -0,4 C
21.03.2010 03:16 9,3 C 98 % 1007 hPa 0,0 l/m 24,6 km/h (4 Bft) S-SW45 200 0 min 0 lux 0,00 min 9,0 C 1,0 C
21.03.2010 03:31 9,2 C 98 % 1007 hPa 2,7 l/m 33,4 km/h (5 Bft) W-SW67.5 255 0 min 0 lux 15,00 min 8,9 C -1,2 C
21.03.2010 03:46 9,2 C 98 % 1007 hPa 1,5 l/m 25,9 km/h (4 Bft) W-SW45 240 0 min 0 lux 15,00 min 8,9 C 0,5 C
21.03.2010 04:01 9,2 C 98 % 1007 hPa 0,6 l/m 27,1 km/h (4 Bft) SW22.5 215 0 min 0 lux 15,00 min 8,9 C 0,2 C
21.03.2010 04:16 9,2 C 98 % 1007 hPa 1,5 l/m 26,0 km/h (4 Bft) S-SW45 210 0 min 0 lux 15,00 min 8,9 C 0,5 C
21.03.2010 04:31 9,0 C 98 % 1007 hPa 0,6 l/m 32,2 km/h (5 Bft) S-SW22.5 210 0 min 0 lux 15,00 min 8,7 C -1,2 C
21.03.2010 04:46 8,9 C 98 % 1007 hPa 0,3 l/m 24,6 km/h (4 Bft) SW45 215 0 min 0 lux 15,00 min 8,6 C 0,5 C
21.03.2010 05:01 8,9 C 98 % 1006 hPa 0,0 l/m 27,0 km/h (4 Bft) SW45 215 0 min 0 lux 0,00 min 8,6 C -0,2 C
21.03.2010 05:16 8,9 C 98 % 1007 hPa 0,0 l/m 28,0 km/h (4 Bft) SW67.5 225 0 min 0 lux 0,00 min 8,6 C -0,4 C
21.03.2010 05:31 8,8 C 98 % 1006 hPa 0,0 l/m 29,1 km/h (5 Bft) SW45 215 0 min 0 lux 0,00 min 8,5 C -0,8 C
21.03.2010 05:46 8,8 C 98 % 1007 hPa 0,0 l/m 28,1 km/h (4 Bft) W-SW45 245 0 min 0 lux 0,00 min 8,5 C -0,6 C
21.03.2010 06:01 8,7 C 98 % 1007 hPa 0,0 l/m 22,5 km/h (4 Bft) W-SW45 245 0 min 0 lux 0,00 min 8,4 C 0,8 C
21.03.2010 06:16 8,7 C 98 % 1007 hPa 0,0 l/m 16,2 km/h (3 Bft) SW22.5 225 0 min 0 lux 0,00 min 8,4 C 3,0 C
21.03.2010 06:31 8,8 C 98 % 1007 hPa 0,0 l/m 20,3 km/h (4 Bft) W-SW45 240 0 min 0 lux 0,00 min 8,5 C 1,6 C
21.03.2010 06:46 8,8 C 99 % 1007 hPa 2,1 l/m 26,5 km/h (4 Bft) SW45 230 0 min 217 lux 15,00 min 8,7 C -0,2 C
21.03.2010 07:01 8,8 C 99 % 1007 hPa 0,0 l/m 31,3 km/h (5 Bft) W-SW45 250 0 min 635 lux 0,00 min 8,7 C -1,3 C
21.03.2010 07:16 8,8 C 99 % 1007 hPa 0,0 l/m 33,6 km/h (5 Bft) W-SW45 250 0 min 2,48 klux 0,00 min 8,7 C -1,8 C
21.03.2010 07:31 8,9 C 98 % 1007 hPa 0,0 l/m 42,9 km/h (6 Bft) W-SW22.5 250 0 min 3,27 klux 0,00 min 8,6 C -3,2 C
21.03.2010 07:46 8,7 C 98 % 1008 hPa 0,0 l/m 20,3 km/h (4 Bft) W22.5 265 0 min 2,78 klux 0,00 min 8,4 C 1,5 C
21.03.2010 08:01 8,4 C 97 % 1008 hPa 0,0 l/m 34,8 km/h (5 Bft) W22.5 265 0 min 2,57 klux 0,00 min 8,0 C -2,6 C
21.03.2010 08:16 7,8 C 96 % 1008 hPa 0,0 l/m 35,1 km/h (5 Bft) W-SW45 250 0 min 2,27 klux 0,00 min 7,2 C -3,5 C
21.03.2010 08:31 7,6 C 97 % 1009 hPa 0,0 l/m 30,7 km/h (5 Bft) W45 265 0 min 4,29 klux 0,00 min 7,2 C -2,9 C
21.03.2010 08:46 7,7 C 97 % 1009 hPa 0,0 l/m 35,8 km/h (5 Bft) W45 260 0 min 12,0 klux 0,00 min 7,3 C -3,8 C
21.03.2010 09:01 7,8 C 97 % 1009 hPa 0,3 l/m 36,9 km/h (5 Bft) W45 260 0 min 11,8 klux 15,00 min 7,4 C -3,8 C
21.03.2010 09:16 7,7 C 96 % 1009 hPa 0,0 l/m 36,2 km/h (5 Bft) W-SW22.5 255 0 min 9,4 klux 0,00 min 7,1 C -3,9 C
21.03.2010 09:30 7,6 C 96 % 1010 hPa 0,0 l/m 33,8 km/h (5 Bft) W-SW45 255 0 min 7,75 klux 0,00 min 7,0 C -3,5 C
21.03.2010 09:46 7,7 C 96 % 1010 hPa 0,0 l/m 32,6 km/h (5 Bft) W-SW45 255 0 min 12,5 klux 0,00 min 7,1 C -3,2 C
21.03.2010 10:01 7,8 C 96 % 1010 hPa 0,0 l/m 29,6 km/h (5 Bft) W22.5 260 0 min 11,1 klux 0,00 min 7,2 C -2,3 C
21.03.2010 10:16 7,7 C 96 % 1010 hPa 0,0 l/m 20,7 km/h (4 Bft) W-SW22.5 250 0 min 7,14 klux 0,00 min 7,1 C 0,1 C
21.03.2010 10:31 7,8 C 97 % 1011 hPa 0,0 l/m 24,6 km/h (4 Bft) W-SW22.5 255 0 min 9,7 klux 0,00 min 7,4 C -1,0 C
21.03.2010 10:46 7,8 C 97 % 1011 hPa 0,0 l/m 28,0 km/h (4 Bft) W-SW45 250 0 min 11,3 klux 0,00 min 7,4 C -2,0 C
21.03.2010 11:01 8,0 C 97 % 1011 hPa 0,0 l/m 29,1 km/h (5 Bft) W-SW45 250 0 min 14,6 klux 0,00 min 7,6 C -1,9 C
21.03.2010 11:15 8,2 C 96 % 1011 hPa 0,0 l/m 27,3 km/h (4 Bft) W-SW22.5 250 0 min 16,8 klux 0,00 min 7,6 C -1,2 C
21.03.2010 11:30 8,1 C 96 % 1012 hPa 0,0 l/m 27,8 km/h (4 Bft) W-SW22.5 255 0 min 11,7 klux 0,00 min 7,5 C -1,5 C
21.03.2010 11:46 8,0 C 95 % 1012 hPa 0,3 l/m 29,1 km/h (5 Bft) W22.5 260 0 min 12,0 klux 16,00 min 7,2 C -1,9 C
21.03.2010 12:01 8,0 C 95 % 1012 hPa 0,0 l/m 27,7 km/h (4 Bft) W45 260 0 min 14,2 klux 0,00 min 7,2 C -1,6 C
21.03.2010 12:16 8,1 C 95 % 1012 hPa 0,0 l/m 37,3 km/h (5 Bft) W-SW45 255 0 min 16,0 klux 0,00 min 7,3 C -3,5 C
21.03.2010 12:31 8,2 C 95 % 1012 hPa 0,0 l/m 25,8 km/h (4 Bft) W-SW22.5 255 0 min 12,9 klux 0,00 min 7,4 C -0,8 C
21.03.2010 12:46 8,4 C 95 % 1013 hPa 0,0 l/m 22,5 km/h (4 Bft) W22.5 260 0 min 19,3 klux 0,00 min 7,6 C 0,4 C
21.03.2010 13:01 8,6 C 95 % 1013 hPa 0,3 l/m 22,0 km/h (4 Bft) W-SW45 250 0 min 16,4 klux 15,00 min 7,8 C 0,8 C
21.03.2010 13:15 8,8 C 95 % 1013 hPa 0,0 l/m 30,1 km/h (5 Bft) W-SW45 250 0 min 24,1 klux 0,00 min 8,0 C -1,1 C
21.03.2010 13:31 9,0 C 94 % 1013 hPa 0,0 l/m 36,8 km/h (5 Bft) W22.5 265 0 min 25,3 klux 0,00 min 8,1 C -2,1 C
21.03.2010 13:46 9,2 C 94 % 1013 hPa 0,3 l/m 33,4 km/h (5 Bft) W45 260 0 min 37,2 klux 15,00 min 8,3 C -1,2 C
21.03.2010 14:01 9,3 C 93 % 1014 hPa 0,0 l/m 44,2 km/h (6 Bft) W22.5 260 15 min 41,7 klux 0,00 min 8,2 C -2,7 C
21.03.2010 14:16 9,1 C 90 % 1014 hPa 0,0 l/m 42,1 km/h (6 Bft) W22.5 260 15 min 52,3 klux 0,00 min 7,5 C -2,7 C
21.03.2010 14:31 8,8 C 91 % 1014 hPa 0,0 l/m 33,0 km/h (5 Bft) W22.5 260 0 min 29,4 klux 0,00 min 7,4 C -1,7 C
21.03.2010 14:46 8,6 C 91 % 1014 hPa 0,0 l/m 35,0 km/h (5 Bft) W45 260 0 min 33,8 klux 0,00 min 7,2 C -2,3 C
21.03.2010 15:00 8,8 C 92 % 1014 hPa 0,0 l/m 33,2 km/h (5 Bft) W-SW22.5 250 0 min 30,4 klux 0,00 min 7,6 C -1,7 C
21.03.2010 15:16 8,8 C 90 % 1015 hPa 0,0 l/m 32,4 km/h (5 Bft) W45 260 0 min 22,3 klux 0,00 min 7,3 C -1,5 C
21.03.2010 15:31 8,2 C 91 % 1015 hPa 0,0 l/m 37,0 km/h (5 Bft) W22.5 260 0 min 16,2 klux 0,00 min 6,8 C -3,3 C
21.03.2010 15:46 7,9 C 91 % 1015 hPa 0,0 l/m 32,6 km/h (5 Bft) W22.5 260 0 min 15,9 klux 0,00 min 6,5 C -2,9 C
21.03.2010 16:01 7,8 C 92 % 1015 hPa 0,0 l/m 25,8 km/h (4 Bft) W-SW45 255 0 min 14,0 klux 0,00 min 6,6 C -1,4 C
21.03.2010 16:16 7,5 C 92 % 1015 hPa 0,0 l/m 29,0 km/h (5 Bft) W22.5 260 0 min 7,38 klux 0,00 min 6,3 C -2,6 C
21.03.2010 16:30 7,2 C 93 % 1015 hPa 0,0 l/m 26,8 km/h (4 Bft) W22.5 260 0 min 5,62 klux 0,00 min 6,1 C -2,5 C
21.03.2010 16:46 7,0 C 93 % 1016 hPa 0,0 l/m 26,2 km/h (4 Bft) W22.5 265 0 min 8,17 klux 0,00 min 5,9 C -2,6 C
21.03.2010 17:01 7,0 C 94 % 1016 hPa 0,0 l/m 27,3 km/h (4 Bft) W22.5 265 0 min 10,3 klux 0,00 min 6,1 C -2,9 C
21.03.2010 17:16 6,6 C 94 % 1016 hPa 0,0 l/m 24,9 km/h (4 Bft) W67.5 270 0 min 4,55 klux 0,00 min 5,7 C -2,7 C
21.03.2010 17:31 6,2 C 95 % 1016 hPa 0,0 l/m 24,0 km/h (4 Bft) W22.5 260 0 min 3,44 klux 0,00 min 5,5 C -3,0 C
21.03.2010 17:46 6,1 C 95 % 1016 hPa 0,0 l/m 20,3 km/h (4 Bft) W22.5 270 0 min 7,10 klux 0,00 min 5,4 C -1,9 C
21.03.2010 18:01 6,1 C 95 % 1017 hPa 0,0 l/m 20,3 km/h (4 Bft) W22.5 260 0 min 3,33 klux 0,00 min 5,4 C -1,9 C
21.03.2010 18:15 6,0 C 95 % 1017 hPa 0,0 l/m 22,3 km/h (4 Bft) W22.5 260 0 min 3,03 klux 0,00 min 5,3 C -2,7 C
21.03.2010 18:31 5,8 C 94 % 1017 hPa 0,0 l/m 16,3 km/h (3 Bft) W22.5 265 0 min 1,14 klux 0,00 min 4,9 C -0,6 C
21.03.2010 18:46 5,6 C 95 % 1017 hPa 0,0 l/m 16,6 km/h (3 Bft) W22.5 260 0 min 240 lux 0,00 min 4,9 C -1,0 C
21.03.2010 19:01 5,5 C 96 % 1018 hPa 0,0 l/m 15,2 km/h (3 Bft) W-SW22.5 255 0 min 131 lux 0,00 min 4,9 C -0,4 C
21.03.2010 19:16 5,4 C 96 % 1018 hPa 0,0 l/m 12,3 km/h (3 Bft) W22.5 275 0 min 33 lux 0,00 min 4,8 C 1,0 C
21.03.2010 19:31 5,2 C 96 % 1018 hPa 0,0 l/m 14,6 km/h (3 Bft) W-SW22.5 255 0 min 0 lux 0,00 min 4,6 C -0,5 C
21.03.2010 19:46 5,2 C 96 % 1018 hPa 0,0 l/m 6,2 km/h (2 Bft) W22.5 265 0 min 0 lux 0,00 min 4,6 C 5,2 C
21.03.2010 20:00 5,2 C 96 % 1018 hPa 0,0 l/m 6,4 km/h (2 Bft) W 260 0 min 0 lux 0,00 min 4,6 C 5,2 C
21.03.2010 20:16 5,2 C 96 % 1019 hPa 0,0 l/m 12,5 km/h (3 Bft) W 260 0 min 0 lux 0,00 min 4,6 C 0,7 C
21.03.2010 20:31 5,2 C 96 % 1019 hPa 0,0 l/m 11,8 km/h (2 Bft) W22.5 260 0 min 0 lux 0,00 min 4,6 C 1,1 C
21.03.2010 20:46 5,2 C 96 % 1019 hPa 0,0 l/m 7,5 km/h (2 Bft) W 265 0 min 0 lux 0,00 min 4,6 C 4,2 C
21.03.2010 21:01 5,1 C 96 % 1019 hPa 0,0 l/m 9,9 km/h (2 Bft) W-SW 255 0 min 0 lux 0,00 min 4,5 C 2,3 C
21.03.2010 21:16 5,1 C 96 % 1019 hPa 0,0 l/m 7,4 km/h (2 Bft) W 260 0 min 0 lux 0,00 min 4,5 C 4,2 C
21.03.2010 21:30 5,1 C 96 % 1019 hPa 0,0 l/m 4,2 km/h (1 Bft) W 270 0 min 0 lux 0,00 min 4,5 C 5,1 C
21.03.2010 21:46 5,1 C 96 % 1019 hPa 0,0 l/m 1,0 km/h (0 Bft) W 270 0 min 0 lux 0,00 min 4,5 C 5,1 C
21.03.2010 22:01 5,1 C 96 % 1019 hPa 0,0 l/m 6,3 km/h (2 Bft) W 270 0 min 0 lux 0,00 min 4,5 C 5,1 C
21.03.2010 22:16 5,1 C 97 % 1019 hPa 0,0 l/m 0,0 km/h (0 Bft) W 265 0 min 0 lux 0,00 min 4,7 C 5,1 C
21.03.2010 22:31 5,1 C 97 % 1019 hPa 0,0 l/m 0,0 km/h (0 Bft) W 265 0 min 0 lux 0,00 min 4,7 C 5,1 C
21.03.2010 22:46 4,9 C 97 % 1019 hPa 0,0 l/m 0,0 km/h (0 Bft) NW 320 0 min 0 lux 0,00 min 4,5 C 4,9 C
21.03.2010 23:01 4,9 C 97 % 1020 hPa 0,0 l/m 0,0 km/h (0 Bft) NW 320 0 min 0 lux 0,00 min 4,5 C 4,9 C
21.03.2010 23:15 4,8 C 97 % 1020 hPa 0,0 l/m 0,0 km/h (0 Bft) NW 320 0 min 0 lux 0,00 min 4,4 C 4,8 C
21.03.2010 23:31 4,7 C 97 % 1020 hPa 0,0 l/m 0,0 km/h (0 Bft) NW 320 0 min 0 lux 0,00 min 4,3 C 4,7 C
21.03.2010 23:46 4,7 C 97 % 1020 hPa 0,0 l/m 0,0 km/h (0 Bft) NW 320 0 min 0 lux 0,00 min 4,3 C 4,7 C
_ Min-Zeit 23:31 14:16 05:01 - 22:16 - - - - - 23:31 09:16
Minimum _ 4,7 C 90 % 1006 hPa - 0,0 km/h (0 Bft) - - - - - 4,3 C -3,9 C
_ Max-Zeit 00:00 06:46 23:01 01:00 00:00 - - 14:01 14:16 02:16 00:00 20:00
Maximum _ 9,8 C 99 % 1020 hPa 5,4 l/m 48,1 km/h
SW (6 Bft)
- - 15 min 52,3 klux 16,00 min 9,3 C 5,2 C
Durchschnitt _ 7,7 C 96 % 1013 hPa #20,7 l/m 24,6 km/h (4 Bft) W - #30 min. 6,69 klux #5:02 h 7,0 C -0,3 C